TimeCST,TemperatureF,Dew PointF,Humidity,Sea Level PressureIn,VisibilityMPH,Wind Direction,Wind SpeedMPH,Gust SpeedMPH,PrecipitationIn,Events,Conditions,WindDirDegrees,DateUTC
12:51 AM,57.9,55.0,90,30.14,10.0,North,6.9,-,N/A,,Clear,10,2013-11-09 06:51:00
1:51 AM,60.1,57.0,90,30.13,10.0,NE,8.1,-,N/A,,Clear,40,2013-11-09 07:51:00
2:51 AM,60.1,55.9,86,30.11,10.0,NE,10.4,-,N/A,,Partly Cloudy,40,2013-11-09 08:51:00
3:51 AM,60.1,55.9,86,30.10,10.0,NE,6.9,-,N/A,,Clear,40,2013-11-09 09:51:00
4:51 AM,61.0,57.0,87,30.10,10.0,NE,5.8,-,N/A,,Clear,40,2013-11-09 10:51:00
5:51 AM,60.1,55.9,86,30.11,10.0,NNE,5.8,-,N/A,,Clear,20,2013-11-09 11:51:00
6:51 AM,61.0,57.0,87,30.13,10.0,NE,8.1,-,N/A,,Partly Cloudy,40,2013-11-09 12:51:00
7:51 AM,63.0,57.9,84,30.14,10.0,NE,8.1,-,N/A,,Clear,40,2013-11-09 13:51:00
8:51 AM,68.0,59.0,73,30.15,10.0,NE,5.8,-,N/A,,Scattered Clouds,50,2013-11-09 14:51:00
9:51 AM,73.0,61.0,66,30.16,10.0,East,11.5,-,N/A,,Scattered Clouds,80,2013-11-09 15:51:00
10:51 AM,75.0,61.0,62,30.15,10.0,East,11.5,-,N/A,,Scattered Clouds,100,2013-11-09 16:51:00
11:51 AM,75.9,60.1,58,30.14,10.0,East,10.4,-,N/A,,Mostly Cloudy,80,2013-11-09 17:51:00
12:51 PM,73.9,60.1,62,30.12,10.0,ENE,10.4,-,N/A,,Mostly Cloudy,70,2013-11-09 18:51:00
1:51 PM,75.9,61.0,60,30.10,10.0,East,11.5,-,N/A,,Mostly Cloudy,100,2013-11-09 19:51:00
2:51 PM,75.9,62.1,62,30.09,10.0,East,11.5,-,N/A,,Mostly Cloudy,100,2013-11-09 20:51:00
3:51 PM,75.0,61.0,62,30.09,10.0,ESE,11.5,-,N/A,,Mostly Cloudy,110,2013-11-09 21:51:00
4:51 PM,73.9,61.0,64,30.09,10.0,East,11.5,-,N/A,,Scattered Clouds,90,2013-11-09 22:51:00
5:51 PM,71.1,62.1,73,30.10,10.0,ESE,5.8,-,N/A,,Scattered Clouds,110,2013-11-09 23:51:00
6:51 PM,70.0,62.1,76,30.12,10.0,East,4.6,-,N/A,,Partly Cloudy,90,2013-11-10 00:51:00
7:51 PM,69.1,62.1,78,30.12,10.0,East,4.6,-,N/A,,Partly Cloudy,80,2013-11-10 01:51:00
8:51 PM,69.1,63.0,81,30.13,10.0,ENE,4.6,-,N/A,,Partly Cloudy,70,2013-11-10 02:51:00
9:51 PM,66.9,63.0,87,30.14,10.0,NNE,4.6,-,N/A,,Partly Cloudy,30,2013-11-10 03:51:00
10:51 PM,66.9,63.0,87,30.14,10.0,NE,5.8,-,N/A,,Clear,50,2013-11-10 04:51:00
11:51 PM,66.0,62.1,87,30.14,10.0,NE,5.8,-,N/A,,Clear,40,2013-11-10 05:51:00